Regional Weather Roundup
Issued by NWS

Home | Current Version | Previous Version | Text Only | Print | Product List | Glossary On
Versions: 1 2 3 4 5 6 7 8 9 10 11 12 13 14 15 16 17 18 19 20 21 22 23 24 25 26 27 28 29 30 31 32 33 34 35 36 37 38 39 40 41 42 43 44 45 46 47 48 49 50
000
ASUS43 KTOP 242308
RWRKS

WEATHER ROUNDUP FOR KANSAS
NATIONAL WEATHER SERVICE GOODLAND KS
600 PM CDT THU JUL 24 2014

NOTE:  "FAIR" INDICATES FEW OR NO CLOUDS BELOW 12,000 FEET WITH NO
SIGNIFICANT WEATHER AND/OR OBSTRUCTIONS TO VISIBILITY.

KSZ001>006-013>018-027>032-041>047-250000-
NORTHWEST KANSAS

CITY           SKY/WX    TMP DP  RH WIND       PRES   REMARKS
GOODLAND       MOSUNNY   96  43  16 S16       29.90F
HAYS           SUNNY     79  68  69 S24       29.90F
HILL CITY      SUNNY     98  67  36 S23G30    29.85F HX 102
RUSSELL        SUNNY     93  70  46 S24G33    29.90F HX  99
$$

KSZ061>065-074>080-084>089-250000-
SOUTHWEST KANSAS

CITY           SKY/WX    TMP DP  RH WIND       PRES   REMARKS
DODGE CITY     SUNNY     94  66  39 S20G32    29.94F HX  97
ELKHART          N/A     95  53  24 S17         N/A
GARDEN CITY    SUNNY     96  56  26 S20G28    29.94F
GREAT BEND     SUNNY     93  70  46 S24G30    29.91F HX  99
LIBERAL        SUNNY    100  52  19 S17G25    29.98F HX  98
PRATT          SUNNY     91  68  46 S18       29.97F HX  95
$$

KSZ066>073-081>083-090>101-250000-
SOUTHEAST KANSAS

CITY           SKY/WX    TMP DP  RH WIND       PRES   REMARKS
CHANUTE        SUNNY     86  66  51 SE9       30.00F
COFFEYVILLE    SUNNY     88  69  53 SE10      29.98F
HUTCHINSON     SUNNY     93  67  42 S22       29.95F HX  96
MEDICINE LODGE   N/A     94  71  47 S14G21    29.94F HX 101
NEWTON         SUNNY     90  64  43 S18G26    30.00F
PARSONS        SUNNY     87  67  51 VRB6      30.01F
WICHITA INTL   MOSUNNY   89  69  51 SE16      29.96F
WICHITA JABRA  SUNNY     90  69  50 S18       29.97F
WICHITA MCCONL SUNNY     90  68  49 SE14      29.98F
WINFIELD       SUNNY     89  71  55 SE10      29.99F HX  95
$$

KSZ007>012-019>026-033>040-048>060-102>105-250000-
NORTHEAST KANSAS

CITY           SKY/WX    TMP DP  RH WIND       PRES   REMARKS
CONCORDIA      SUNNY     90  67  46 S22G31    29.91F
EMPORIA        SUNNY     86  64  47 SE16G22   29.98F
LAWRENCE       SUNNY     86  61  42 SE12      29.99F
MANHATTAN      SUNNY     90  65  43 S18       29.95F
MARYSVILLE     SUNNY     88  63  42 SE15      29.95S
OLATHE IND     SUNNY     84  59  42 S10G21    30.02F
OLATHE EXE     SUNNY     82  59  45 SE12      30.01F
SALINA         SUNNY     94  66  39 S22G30    29.92F HX  97
TOPEKA BILLARD SUNNY     88  61  40 SE13      29.98F
TOPEKA FORBES  SUNNY     88  61  40 S14       29.98F
$$



USA.gov is the U.S. government's official web portal to all federal, state and local government web resources and services.